Kezdőlap
METAR-TAF:

METAR-TAF

Repülőterek :

Worthington Municipal Airport

Worthington, Minnesota, Amerikai Egyesült Államok

földrajzi szélesség: 43-39N, földrajzi hosszúság: 095-35W, magasság: 480 m

Jelenlegi meteorológiai megfigyelések

A jelentés 18 perccel ezelõtt készült, 10:56 UTC
Kelet-délkeleti szél 5 kt
Hőmérséklet 11°C
Páratartalom 71%
Légköri nyomás 1016 hPa
Látótávolság: 16.1 km
Szórványos felhőzet 11000 lábon

METAR: KOTG 171056Z AUTO 12005KT 10SM SCT110 11/06 A3000 RMK AO2 SLP160 T01110061

Idő: 06:14 (11:14 UTC)


TAF: hiányzik

Meteorológiai megfigyelések és előrejelzések több, mint 4000 repülőtéren (METAR és TAF jelentéseket).

A térképen piros és sárga pontok jelzik az elérhető meteorológiai állomásokat.

Mozgassa az egeret a pont fölött, hogy megjelenjen az állomás neve.

Azután kattintson az időjárási megfigyelések és előrejelzések megtekintéséhez.

A térkép megváltoztatása: kattintson a fekete keresztel jelölt zöld gombra ráközelítéshez, a vonallal jelölt zöld gombra távolításhoz, vagy a zöld nyilakra a szomszédos térképek eléréséhez.


METAR-TAF: